TimeMST,TemperatureF,Dew PointF,Humidity,Sea Level PressureIn,VisibilityMPH,Wind Direction,Wind SpeedMPH,Gust SpeedMPH,PrecipitationIn,Events,Conditions,WindDirDegrees,DateUTC
12:53 AM,17.1,8.1,68,30.18,10.0,ENE,6.9,-,N/A,,Clear,70,2014-01-26 07:53:00
1:53 AM,18.0,9.0,68,30.16,10.0,ENE,10.4,-,N/A,,Clear,60,2014-01-26 08:53:00
2:53 AM,17.1,9.0,71,30.15,10.0,East,9.2,-,N/A,,Clear,80,2014-01-26 09:53:00
3:53 AM,16.0,8.1,71,30.12,10.0,East,8.1,-,N/A,,Clear,80,2014-01-26 10:53:00
4:53 AM,14.0,7.0,74,30.14,10.0,ENE,5.8,-,N/A,,Clear,60,2014-01-26 11:53:00
5:53 AM,12.0,6.1,77,30.17,10.0,East,4.6,-,N/A,,Clear,80,2014-01-26 12:53:00
6:53 AM,12.0,5.0,73,30.22,10.0,East,3.5,-,N/A,,Clear,80,2014-01-26 13:53:00
7:53 AM,14.0,7.0,74,30.25,10.0,ENE,6.9,-,N/A,,Clear,70,2014-01-26 14:53:00
8:53 AM,27.0,14.0,58,30.20,10.0,Variable,3.5,-,N/A,,Clear,0,2014-01-26 15:53:00
9:53 AM,37.9,12.0,35,30.16,10.0,North,-9999.0,-,N/A,,Partly Cloudy,0,2014-01-26 16:53:00
10:53 AM,43.0,7.0,23,30.12,10.0,Calm,Calm,-,N/A,,Clear,0,2014-01-26 17:53:00
11:53 AM,46.0,8.1,21,30.10,10.0,North,-9999.0,-,N/A,,Clear,0,2014-01-26 18:53:00
12:53 PM,48.0,10.9,22,30.05,10.0,SW,10.4,-,N/A,,Clear,220,2014-01-26 19:53:00
1:53 PM,51.1,10.9,20,29.99,10.0,West,10.4,-,N/A,,Clear,260,2014-01-26 20:53:00
2:53 PM,52.0,12.0,20,29.98,10.0,North,-9999.0,-,N/A,,Clear,0,2014-01-26 21:53:00
3:53 PM,50.0,10.9,21,29.99,10.0,West,12.7,-,N/A,,Clear,270,2014-01-26 22:53:00
4:53 PM,46.0,10.0,23,30.01,10.0,West,13.8,-,N/A,,Clear,280,2014-01-26 23:53:00
5:53 PM,41.0,10.0,28,30.05,10.0,West,9.2,-,N/A,,Clear,270,2014-01-27 00:53:00
6:53 PM,35.1,8.1,33,30.08,10.0,West,3.5,-,N/A,,Clear,280,2014-01-27 01:53:00
7:53 PM,26.1,8.1,47,30.12,10.0,NE,9.2,-,N/A,,Clear,50,2014-01-27 02:53:00
8:53 PM,24.1,8.1,51,30.07,10.0,East,9.2,-,N/A,,Clear,90,2014-01-27 03:53:00
9:53 PM,21.9,9.0,58,30.04,10.0,ENE,10.4,-,N/A,,Clear,60,2014-01-27 04:53:00
10:53 PM,19.0,9.0,65,30.05,10.0,SE,5.8,-,N/A,,Clear,130,2014-01-27 05:53:00
11:53 PM,17.1,9.0,71,30.04,10.0,ENE,5.8,-,N/A,,Clear,60,2014-01-27 06:53:00